Showing default

USA 325, 51281

Orbit data source: Space-Track

USA 325, 51281 is a payload satellite owned by USSF (US) in GEO that was launched on Fri, 21 Jan 2022 UTC via an ATLAS V 511 launch vehicle from the Air Force Eastern Test Range (AFETR). Payload-class satellites include a variety of spacecraft equipped with specific instruments for various scientific and technological missions. These include communications satellites like Starlink; space stations such as the ISS; scientific satellites like the Hubble; Earth observation satellites from companies like Planet Labs, Umbra, and HawkEye 360; GPS; miniature CubeSats for education and research; and military/defense satellites.

Not visible in the next 10 days
Identifier
51281, 2022-006B
Orbit
GEO
Country
Flag of USUS
Related business
Manufacturer
NGIS SSG
Mission
Operational Defense Classified
Bus & Motor
GEOSTAR-1, AOCS
Mass
500 kg wet, 500 kg dry
Launch date (UTC)
2022-01-21 (4 years ago)
Launch vehicle
ATLAS V 511
Launch site
Air Force Eastern Test Range (AFETR)
Object type
Payload
Rocket body
Debris
Shape & HBR
Box + 2 Pan, 2.5 m
Radar Cross Section
7.621 m²

Expand to show TLE details & history
Last TLE update: 2 months ago

TLE from 2 months ago
0 USA 325
1 51281U 22006B   26006.70962434 -.00000360  00000-0  00000+0 0  9995
2 51281   0.1656  83.9928 0022746 181.1199 218.2610  1.00266333 14512
Epoch: 2026-01-06T17:01Z
TLE epoch observation values (Epoch: 2026-01-06T17:01:51.542Z)
Latitude
0.12601°
Longitude
121.48077°
Altitude
35,863.402 km
Speed
3.069 km/s
True Right ascension
08h 12m 56s
True Declination
0° 07' 33"
Sunlit
Object was in daylight at epoch
Visualization orbit readout
Latitude
Unknown
Longitude
Unknown
Altitude
Unknown
Speed
Unknown
Apparent Right ascension
Unknown
Apparent Declination
Unknown
Sunlit
N/A
Visualization observer readout
Local Sidereal Time
11:39:07
Azimuth
Unknown
Elevation
Unknown
Doppler factor
Unknown
Orbital elements
Apogee altitude
35,885.108 km
Perigee altitude
35,693.28 km
Semi-major axis
42,167.331 km
Eccentricity
0.00227
Inclination
0.1656°
RAAN
83.9928°
Arg. of periapsis
181.1199°
True anomaly
218.09995°
Mean anomaly
218.261°
Eccentric anomaly
218.18044°
Mean motion
0.25066 °/min
Orbital period
1,436.23 mins
BSTAR
0
Loading maneuver chart data...
Computing Atmospheric mass density...
Loading historical data...
Loading historical data...
Loading historical data...
Loading historical data...
Loading historical data...
Loading historical data...
Loading historical data...
Other satellites on launch #6 in the year 2022 (2022-01-21 UTC)

Documentation

Showing up to 5 results
|